CCA121 ZBAA-ZKPY

Flight info

Callsign CCA121
Flight time 1h 25m
Altitude 41100
Route DOTRA5Y DOTRA B334 KAKAT W31 CHG A575 BIDIB A345 GASAN GAS11A
Aircraft A359/H-SDE2E3GHIJ3J4J5LM1ORWXY/LB1D1

Departure

Time 2026-05-04 23:32
Airport Beijing Capital International Airport (ZBAA)

Arrival

Time 2026-05-05 00:57
Airport Pyongyang Sunan International Airport (ZKPY)
Time Latitude Longitude Altitude Speed Heading
2026-05-04 22:52 40.06413 116.60616 130 ft 0 kts 84°
2026-05-04 23:22 40.06413 116.60610 130 ft 2 kts 84°
2026-05-04 23:23 40.06411 116.60585 130 ft 3 kts 83°
2026-05-04 23:23 40.06408 116.60560 124 ft 2 kts 83°
2026-05-04 23:23 40.06407 116.60536 130 ft 3 kts 99°
2026-05-04 23:23 40.06411 116.60516 130 ft 3 kts 126°
2026-05-04 23:24 40.06421 116.60501 124 ft 3 kts 153°
2026-05-04 23:24 40.06439 116.60491 124 ft 3 kts 168°
2026-05-04 23:24 40.06456 116.60487 130 ft 1 kts 173°
2026-05-04 23:24 40.06458 116.60487 130 ft 0 kts 173°
2026-05-04 23:28 40.06457 116.60487 130 ft 1 kts 173°
2026-05-04 23:28 40.06423 116.60493 125 ft 8 kts 173°
2026-05-04 23:28 40.06363 116.60502 130 ft 9 kts 173°
2026-05-04 23:29 40.06300 116.60485 126 ft 10 kts 226°
2026-05-04 23:29 40.06282 116.60396 130 ft 11 kts 263°
2026-05-04 23:29 40.06272 116.60300 127 ft 9 kts 258°
2026-05-04 23:29 40.06224 116.60262 127 ft 9 kts 180°
2026-05-04 23:30 40.06178 116.60221 125 ft 9 kts 252°
2026-05-04 23:30 40.06173 116.60174 126 ft 5 kts 262°
2026-05-04 23:30 40.06167 116.60114 130 ft 8 kts 262°
2026-05-04 23:30 40.06160 116.60036 125 ft 8 kts 263°
2026-05-04 23:31 40.06152 116.59957 130 ft 8 kts 264°
2026-05-04 23:31 40.06174 116.59918 130 ft 5 kts 333°
2026-05-04 23:31 40.06201 116.59913 130 ft 0 kts 353°
2026-05-04 23:31 40.06254 116.59904 127 ft 32 kts 353°
2026-05-04 23:32 40.06725 116.59831 127 ft 102 kts 353°
2026-05-04 23:32 40.07640 116.59689 129 ft 160 kts 353°
2026-05-04 23:32 40.08798 116.59512 729 ft 164 kts 353°
2026-05-04 23:32 40.09914 116.59343 1538 ft 160 kts 353°
2026-05-04 23:33 40.11044 116.59163 2199 ft 167 kts 352°
2026-05-04 23:33 40.12191 116.58975 2789 ft 167 kts 350°
2026-05-04 23:33 40.13325 116.58795 3374 ft 166 kts 350°
2026-05-04 23:33 40.14524 116.58605 3664 ft 181 kts 349°
2026-05-04 23:34 40.15840 116.58390 3901 ft 200 kts 349°
2026-05-04 23:34 40.17308 116.58156 4084 ft 225 kts 349°
2026-05-04 23:34 40.18927 116.57895 4332 ft 244 kts 349°
2026-05-04 23:34 40.20680 116.57618 4624 ft 262 kts 350°
2026-05-04 23:35 40.22534 116.57327 5046 ft 274 kts 349°
2026-05-04 23:35 40.24451 116.57025 5618 ft 279 kts 349°
2026-05-04 23:35 40.26394 116.56723 6191 ft 283 kts 349°
2026-05-04 23:35 40.28359 116.56397 6788 ft 285 kts 348°
2026-05-04 23:36 40.30335 116.56061 7394 ft 287 kts 348°
2026-05-04 23:36 40.32328 116.55721 7969 ft 291 kts 348°
2026-05-04 23:36 40.34316 116.55382 8547 ft 293 kts 348°
2026-05-04 23:36 40.36238 116.55055 9122 ft 295 kts 348°
2026-05-04 23:37 40.38291 116.54706 9733 ft 297 kts 348°
2026-05-04 23:37 40.40344 116.54359 10302 ft 300 kts 348°
2026-05-04 23:37 40.42472 116.54100 10568 ft 316 kts 355°
2026-05-04 23:37 40.44723 116.54183 10858 ft 330 kts 360°
2026-05-04 23:38 40.47065 116.54363 11136 ft 343 kts
2026-05-04 23:38 40.49490 116.54553 11344 ft 354 kts
2026-05-04 23:38 40.51983 116.54915 11560 ft 367 kts 10°
2026-05-04 23:38 40.54339 116.56182 11836 ft 379 kts 31°
2026-05-04 23:39 40.56438 116.58322 12246 ft 384 kts 39°
2026-05-04 23:39 40.58466 116.60637 12696 ft 387 kts 40°
2026-05-04 23:39 40.60500 116.62966 13144 ft 389 kts 39°
2026-05-04 23:39 40.62559 116.65304 13604 ft 391 kts 39°
2026-05-04 23:40 40.64629 116.67648 14028 ft 393 kts 39°
2026-05-04 23:40 40.66714 116.70001 14447 ft 395 kts 39°
2026-05-04 23:40 40.68804 116.72358 14886 ft 397 kts 39°
2026-05-04 23:40 40.70907 116.74736 15330 ft 399 kts 39°
2026-05-04 23:41 40.73000 116.77075 15766 ft 400 kts 37°
2026-05-04 23:41 40.75333 116.79075 16201 ft 400 kts 24°
2026-05-04 23:41 40.77967 116.80201 16643 ft 398 kts
2026-05-04 23:41 40.80718 116.80666 17065 ft 399 kts
2026-05-04 23:42 40.83494 116.80878 17480 ft 400 kts
2026-05-04 23:42 40.86277 116.80971 17998 ft 398 kts 359°
2026-05-04 23:42 40.89036 116.81032 18534 ft 397 kts 359°
2026-05-04 23:42 40.91807 116.81104 18912 ft 399 kts 359°
2026-05-04 23:43 40.94558 116.81199 19279 ft 402 kts 360°
2026-05-04 23:43 40.97364 116.81318 19669 ft 404 kts 360°
2026-05-04 23:43 41.00176 116.81452 20047 ft 406 kts
2026-05-04 23:43 41.03010 116.81598 20398 ft 408 kts
2026-05-04 23:44 41.05860 116.81751 20747 ft 410 kts
2026-05-04 23:44 41.08728 116.81906 21094 ft 412 kts
2026-05-04 23:44 41.11595 116.82059 21420 ft 413 kts
2026-05-04 23:44 41.14478 116.82211 21730 ft 416 kts 360°
2026-05-04 23:45 41.17338 116.82360 22052 ft 417 kts
2026-05-04 23:45 41.20254 116.82513 22343 ft 419 kts
2026-05-04 23:45 41.23174 116.82668 22666 ft 420 kts 360°
2026-05-04 23:45 41.26110 116.82823 22981 ft 422 kts 360°
2026-05-04 23:46 41.29048 116.82978 23262 ft 423 kts 360°
2026-05-04 23:46 41.32008 116.83132 23530 ft 426 kts 360°
2026-05-04 23:46 41.34936 116.83283 23814 ft 428 kts 360°
2026-05-04 23:46 41.37914 116.83438 24098 ft 429 kts 360°
2026-05-04 23:47 41.40902 116.83594 24359 ft 431 kts 360°
2026-05-04 23:47 41.43903 116.83754 24634 ft 432 kts 360°
2026-05-04 23:47 41.46907 116.83914 24944 ft 432 kts 360°
2026-05-04 23:47 41.49922 116.84075 25216 ft 434 kts 360°
2026-05-04 23:48 41.52939 116.84235 25503 ft 435 kts 360°
2026-05-04 23:48 41.55970 116.84396 25765 ft 436 kts 360°
2026-05-04 23:48 41.59007 116.84561 26034 ft 437 kts 360°
2026-05-04 23:48 41.62043 116.84991 26339 ft 440 kts
2026-05-04 23:49 41.65032 116.86016 26623 ft 445 kts 16°
2026-05-04 23:49 41.67871 116.87709 26921 ft 451 kts 26°
2026-05-04 23:49 41.70445 116.90066 27202 ft 457 kts 37°
2026-05-04 23:49 41.72697 116.93098 27494 ft 464 kts 47°
2026-05-04 23:50 41.74502 116.96702 27806 ft 470 kts 58°
2026-05-04 23:50 41.76017 117.00654 28129 ft 473 kts 60°
2026-05-04 23:50 41.77416 117.04651 28445 ft 475 kts 62°
2026-05-04 23:50 41.78763 117.08650 28762 ft 476 kts 62°
2026-05-04 23:51 41.80119 117.12709 29091 ft 477 kts 62°
2026-05-04 23:51 41.81485 117.16770 29412 ft 479 kts 62°
2026-05-04 23:51 41.82869 117.20844 29722 ft 480 kts 62°
2026-05-04 23:51 41.84260 117.24909 30052 ft 481 kts 61°
2026-05-04 23:52 41.85666 117.29002 30363 ft 483 kts 61°
2026-05-04 23:52 41.87076 117.33101 30673 ft 484 kts 61°
2026-05-04 23:52 41.88492 117.37218 30986 ft 486 kts 61°
2026-05-04 23:52 41.89893 117.41289 31275 ft 488 kts 61°
2026-05-04 23:53 41.91313 117.45429 31558 ft 489 kts 61°
2026-05-04 23:53 41.92737 117.49587 31851 ft 491 kts 61°
2026-05-04 23:53 41.94166 117.53764 32131 ft 492 kts 61°
2026-05-04 23:53 41.95591 117.57942 32442 ft 492 kts 61°
2026-05-04 23:54 41.97011 117.62117 32834 ft 490 kts 61°
2026-05-04 23:54 41.98423 117.66275 33235 ft 487 kts 61°
2026-05-04 23:54 41.99829 117.70421 33611 ft 486 kts 61°
2026-05-04 23:54 42.01229 117.74550 33958 ft 486 kts 61°
2026-05-04 23:55 42.02626 117.78678 34297 ft 484 kts 60°
2026-05-04 23:55 42.04019 117.82799 34622 ft 484 kts 60°
2026-05-04 23:55 42.06802 117.91053 35237 ft 484 kts 61°
2026-05-04 23:56 42.08193 117.95185 35535 ft 484 kts 61°
2026-05-04 23:56 42.09584 117.99317 35796 ft 485 kts 61°
2026-05-04 23:56 42.10976 118.03459 36053 ft 486 kts 61°
2026-05-04 23:56 42.12369 118.07613 36282 ft 488 kts 60°
2026-05-04 23:57 42.13772 118.11799 36361 ft 493 kts 61°
2026-05-04 23:57 42.15203 118.16064 36111 ft 505 kts 61°
2026-05-04 23:57 42.16625 118.20415 36284 ft 508 kts 64°
2026-05-04 23:57 42.17712 118.24956 36659 ft 511 kts 72°
2026-05-04 23:58 42.18295 118.29622 36994 ft 514 kts 82°
2026-05-04 23:58 42.18514 118.34431 37362 ft 512 kts 84°
2026-05-04 23:58 42.18620 118.39225 37749 ft 508 kts 85°
2026-05-04 23:58 42.18672 118.43987 38064 ft 507 kts 86°
2026-05-04 23:59 42.18706 118.48743 38301 ft 507 kts 86°
2026-05-04 23:59 42.18738 118.53498 38544 ft 506 kts 86°
2026-05-04 23:59 42.18774 118.58235 38773 ft 506 kts 86°
2026-05-04 23:59 42.18817 118.62930 38950 ft 506 kts 86°
2026-05-05 00:00 42.18863 118.67691 39124 ft 506 kts 86°
2026-05-05 00:00 42.18732 118.77212 39398 ft 511 kts 95°
2026-05-05 00:00 42.18050 118.81949 39539 ft 515 kts 104°
2026-05-05 00:01 42.16834 118.86436 39694 ft 517 kts 115°
2026-05-05 00:01 42.15258 118.90790 39851 ft 517 kts 116°
2026-05-05 00:01 42.13577 118.95084 40007 ft 518 kts 118°
2026-05-05 00:01 42.11844 118.99353 40162 ft 519 kts 118°
2026-05-05 00:02 42.10094 119.03612 40342 ft 519 kts 118°
2026-05-05 00:02 42.08349 119.07863 40484 ft 519 kts 118°
2026-05-05 00:02 42.06600 119.12144 40565 ft 521 kts 118°
2026-05-05 00:02 42.04865 119.16415 40703 ft 521 kts 118°
2026-05-05 00:03 42.03128 119.20702 40858 ft 521 kts 118°
2026-05-05 00:03 41.99675 119.29237 40933 ft 523 kts 118°
2026-05-05 00:04 41.96200 119.37808 40932 ft 521 kts 118°
2026-05-05 00:04 41.92730 119.46366 40932 ft 520 kts 118°
2026-05-05 00:05 41.89318 119.54961 40932 ft 520 kts 117°
2026-05-05 00:05 41.85928 119.63523 40932 ft 519 kts 118°
2026-05-05 00:06 41.82524 119.72070 40938 ft 520 kts 118°
2026-05-05 00:06 41.79127 119.80552 40942 ft 520 kts 118°
2026-05-05 00:07 41.75702 119.89074 40942 ft 520 kts 118°
2026-05-05 00:07 41.72259 119.97616 40941 ft 520 kts 118°
2026-05-05 00:08 41.68819 120.06128 40942 ft 520 kts 118°
2026-05-05 00:08 41.65375 120.14626 40941 ft 520 kts 118°
2026-05-05 00:09 41.61937 120.23081 40942 ft 520 kts 118°
2026-05-05 00:09 41.58469 120.31588 40942 ft 520 kts 118°
2026-05-05 00:10 41.55313 120.40249 40942 ft 518 kts 108°
2026-05-05 00:10 41.54081 120.49569 40943 ft 512 kts 87°
2026-05-05 00:11 41.54391 120.59072 40941 ft 512 kts 83°
2026-05-05 00:11 41.54948 120.68558 40942 ft 512 kts 83°
2026-05-05 00:12 41.55495 120.78040 40941 ft 512 kts 83°
2026-05-05 00:12 41.55997 120.87532 40942 ft 513 kts 84°
2026-05-05 00:13 41.56470 120.96984 40951 ft 513 kts 84°
2026-05-05 00:13 41.56936 121.06506 40950 ft 514 kts 84°
2026-05-05 00:14 41.57397 121.16045 40944 ft 514 kts 84°
2026-05-05 00:14 41.57954 121.25569 40942 ft 513 kts 82°
2026-05-05 00:15 41.58744 121.35052 40941 ft 514 kts 81°
2026-05-05 00:15 41.59532 121.44476 40942 ft 514 kts 82°
2026-05-05 00:16 41.60281 121.53991 40935 ft 514 kts 82°
2026-05-05 00:16 41.60882 121.61902 40932 ft 514 kts 82°
2026-05-05 00:17 41.61591 121.71410 40946 ft 515 kts 82°
2026-05-05 00:17 41.62295 121.80936 40942 ft 515 kts 82°
2026-05-05 00:18 41.62995 121.90483 40942 ft 515 kts 82°
2026-05-05 00:18 41.63681 121.99960 40933 ft 516 kts 82°
2026-05-05 00:19 41.64286 122.09515 40931 ft 517 kts 88°
2026-05-05 00:19 41.63680 122.19103 40932 ft 518 kts 97°
2026-05-05 00:20 41.62629 122.28633 40923 ft 518 kts 98°
2026-05-05 00:20 41.61502 122.38171 40923 ft 518 kts 98°
2026-05-05 00:21 41.60385 122.47684 40923 ft 518 kts 98°
2026-05-05 00:21 41.59281 122.57165 40914 ft 518 kts 98°
2026-05-05 00:22 41.58171 122.66684 40914 ft 518 kts 98°
2026-05-05 00:22 41.57050 122.76217 40915 ft 518 kts 98°
2026-05-05 00:23 41.55923 122.85732 40916 ft 518 kts 98°
2026-05-05 00:23 41.54788 122.95243 40904 ft 518 kts 98°
2026-05-05 00:24 41.53653 123.04679 40904 ft 518 kts 98°
2026-05-05 00:24 41.52500 123.14189 40904 ft 518 kts 98°
2026-05-05 00:25 41.51343 123.23674 40904 ft 518 kts 98°
2026-05-05 00:25 41.50195 123.33110 40905 ft 518 kts 98°
2026-05-05 00:26 41.49131 123.42629 40904 ft 518 kts 97°
2026-05-05 00:26 41.48087 123.52150 40904 ft 519 kts 97°
2026-05-05 00:27 41.47021 123.61674 40904 ft 520 kts 97°
2026-05-05 00:27 41.45935 123.71205 40904 ft 520 kts 98°
2026-05-05 00:28 41.44837 123.80741 40904 ft 520 kts 98°
2026-05-05 00:28 41.43734 123.90254 40904 ft 520 kts 98°
2026-05-05 00:29 41.42631 123.99704 40904 ft 520 kts 98°
2026-05-05 00:29 41.40681 124.08924 40906 ft 519 kts 120°
2026-05-05 00:29 41.38599 124.12813 40902 ft 515 kts 135°
2026-05-05 00:30 41.35876 124.15858 40902 ft 509 kts 151°
2026-05-05 00:30 41.32702 124.17862 40905 ft 502 kts 166°
2026-05-05 00:30 41.29305 124.18704 40905 ft 494 kts 182°
2026-05-05 00:31 41.22445 124.18583 40769 ft 493 kts 185°
2026-05-05 00:31 41.19057 124.18546 40529 ft 494 kts 184°
2026-05-05 00:31 41.15609 124.18632 40280 ft 496 kts 181°
2026-05-05 00:31 41.12157 124.18870 40032 ft 497 kts 180°
2026-05-05 00:32 41.08709 124.19144 39785 ft 496 kts 180°
2026-05-05 00:32 41.05262 124.19398 39489 ft 495 kts 180°
2026-05-05 00:32 41.01829 124.19671 38978 ft 493 kts 179°
2026-05-05 00:32 40.98403 124.20018 38379 ft 493 kts 178°
2026-05-05 00:33 40.94978 124.20411 37743 ft 494 kts 178°
2026-05-05 00:33 40.91548 124.20823 37080 ft 495 kts 177°
2026-05-05 00:33 40.88115 124.21237 36418 ft 496 kts 177°
2026-05-05 00:33 40.84673 124.21646 35736 ft 497 kts 177°
2026-05-05 00:34 40.81227 124.22049 35037 ft 499 kts 176°
2026-05-05 00:34 40.77757 124.22450 34291 ft 501 kts 176°
2026-05-05 00:34 40.74265 124.22847 33482 ft 505 kts 176°
2026-05-05 00:34 40.70786 124.23239 32660 ft 508 kts 176°
2026-05-05 00:35 40.67251 124.23640 31805 ft 511 kts 176°
2026-05-05 00:35 40.63699 124.24044 30930 ft 513 kts 176°
2026-05-05 00:35 40.60138 124.24449 30028 ft 514 kts 177°
2026-05-05 00:35 40.56562 124.24854 29223 ft 513 kts 177°
2026-05-05 00:36 40.53021 124.25256 28537 ft 509 kts 177°
2026-05-05 00:36 40.49499 124.25655 27868 ft 505 kts 177°
2026-05-05 00:36 40.46013 124.26049 27208 ft 501 kts 177°
2026-05-05 00:36 40.42548 124.26441 26561 ft 496 kts 177°
2026-05-05 00:37 40.39114 124.26828 25912 ft 492 kts 178°
2026-05-05 00:37 40.35763 124.27210 25271 ft 488 kts 177°
2026-05-05 00:37 40.32427 124.28026 24618 ft 488 kts 166°
2026-05-05 00:37 40.29299 124.29719 23972 ft 487 kts 152°
2026-05-05 00:38 40.26573 124.32357 23321 ft 487 kts 137°
2026-05-05 00:38 40.24472 124.35805 22678 ft 484 kts 121°
2026-05-05 00:38 40.23074 124.39796 22024 ft 480 kts 110°
2026-05-05 00:38 40.22037 124.43932 21398 ft 476 kts 106°
2026-05-05 00:39 40.21129 124.48074 20777 ft 471 kts 108°
2026-05-05 00:39 40.19859 124.51985 20163 ft 465 kts 119°
2026-05-05 00:39 40.18253 124.55623 19540 ft 460 kts 122°
2026-05-05 00:39 40.16567 124.59152 18912 ft 455 kts 123°
2026-05-05 00:40 40.14865 124.62619 18282 ft 451 kts 124°
2026-05-05 00:40 40.13182 124.66003 17686 ft 446 kts 124°
2026-05-05 00:40 40.11494 124.69375 17062 ft 442 kts 124°
2026-05-05 00:40 40.09815 124.72715 16438 ft 437 kts 124°
2026-05-05 00:41 40.08148 124.76029 15813 ft 434 kts 124°
2026-05-05 00:41 40.06500 124.79294 15205 ft 429 kts 124°
2026-05-05 00:41 40.04863 124.82528 14596 ft 425 kts 124°
2026-05-05 00:41 40.03238 124.85735 13966 ft 421 kts 125°
2026-05-05 00:42 40.01629 124.88909 13346 ft 417 kts 124°
2026-05-05 00:42 40.00038 124.92051 12739 ft 413 kts 125°
2026-05-05 00:42 39.98452 124.95166 12128 ft 409 kts 125°
2026-05-05 00:42 39.96887 124.98239 11610 ft 402 kts 124°
2026-05-05 00:43 39.95374 125.01213 11485 ft 386 kts 125°
2026-05-05 00:43 39.93941 125.04029 11341 ft 370 kts 125°
2026-05-05 00:43 39.92543 125.06769 11218 ft 356 kts 125°
2026-05-05 00:43 39.91201 125.09406 11086 ft 343 kts 126°
2026-05-05 00:44 39.89909 125.11947 10950 ft 330 kts 126°
2026-05-05 00:44 39.88657 125.14397 10813 ft 319 kts 126°
2026-05-05 00:44 39.87426 125.16790 10504 ft 316 kts 126°
2026-05-05 00:44 39.86210 125.19164 10162 ft 312 kts 126°
2026-05-05 00:45 39.85025 125.21479 9846 ft 311 kts 127°
2026-05-05 00:45 39.83832 125.23809 9542 ft 308 kts 127°
2026-05-05 00:45 39.82644 125.26124 9231 ft 308 kts 127°
2026-05-05 00:45 39.81453 125.28438 8932 ft 306 kts 128°
2026-05-05 00:46 39.80273 125.30736 8618 ft 306 kts 128°
2026-05-05 00:46 39.79093 125.33028 8300 ft 303 kts 128°
2026-05-05 00:46 39.77924 125.35299 8016 ft 301 kts 127°
2026-05-05 00:46 39.76761 125.37554 7724 ft 298 kts 127°
2026-05-05 00:47 39.75607 125.39790 7442 ft 297 kts 127°
2026-05-05 00:47 39.74463 125.42010 7153 ft 294 kts 127°
2026-05-05 00:47 39.73178 125.44039 6895 ft 288 kts 142°
2026-05-05 00:47 39.71505 125.45303 6655 ft 279 kts 162°
2026-05-05 00:48 39.69683 125.46155 6384 ft 277 kts 165°
2026-05-05 00:48 39.67860 125.46957 6119 ft 276 kts 165°
2026-05-05 00:48 39.66043 125.47751 5922 ft 271 kts 164°
2026-05-05 00:48 39.64290 125.48535 5814 ft 260 kts 164°
2026-05-05 00:49 39.62635 125.49280 5602 ft 244 kts 164°
2026-05-05 00:49 39.61089 125.49985 5343 ft 233 kts 164°
2026-05-05 00:49 39.59584 125.50675 5092 ft 229 kts 164°
2026-05-05 00:49 39.58082 125.51357 4858 ft 228 kts 163°
2026-05-05 00:50 39.56585 125.52038 4608 ft 228 kts 163°
2026-05-05 00:50 39.55093 125.52714 4361 ft 225 kts 163°
2026-05-05 00:50 39.53613 125.53386 4176 ft 225 kts 163°
2026-05-05 00:50 39.52158 125.54051 3968 ft 224 kts 163°
2026-05-05 00:51 39.50690 125.54710 3745 ft 222 kts 163°
2026-05-05 00:51 39.49236 125.55380 3518 ft 223 kts 160°
2026-05-05 00:51 39.47799 125.56150 3301 ft 222 kts 160°
2026-05-05 00:51 39.46370 125.56812 3167 ft 215 kts 164°
2026-05-05 00:52 39.44952 125.57375 3047 ft 211 kts 165°
2026-05-05 00:52 39.43587 125.57909 3042 ft 198 kts 165°
2026-05-05 00:52 39.42288 125.58424 3030 ft 192 kts 165°
2026-05-05 00:52 39.41032 125.58922 3012 ft 186 kts 164°
2026-05-05 00:53 39.39793 125.59412 3024 ft 186 kts 165°
2026-05-05 00:53 39.38553 125.59897 3032 ft 187 kts 164°
2026-05-05 00:53 39.37325 125.60389 3030 ft 187 kts 164°
2026-05-05 00:53 39.36086 125.60884 2977 ft 185 kts 164°
2026-05-05 00:54 39.34859 125.61372 2742 ft 184 kts 165°
2026-05-05 00:54 39.33631 125.61854 2484 ft 185 kts 165°
2026-05-05 00:54 39.32401 125.62338 2236 ft 183 kts 165°
2026-05-05 00:54 39.31202 125.62819 1966 ft 176 kts 165°
2026-05-05 00:55 39.30059 125.63277 1740 ft 168 kts 164°
2026-05-05 00:55 39.28966 125.63706 1525 ft 160 kts 165°
2026-05-05 00:55 39.27918 125.64119 1323 ft 155 kts 165°
2026-05-05 00:55 39.26919 125.64515 1112 ft 149 kts 165°
2026-05-05 00:56 39.25944 125.64900 929 ft 145 kts 165°
2026-05-05 00:56 39.24972 125.65284 735 ft 146 kts 165°
2026-05-05 00:56 39.24000 125.65667 541 ft 146 kts 164°
2026-05-05 00:56 39.23027 125.66055 321 ft 146 kts 165°
2026-05-05 00:57 39.22062 125.66433 134 ft 145 kts 164°
2026-05-05 00:57 39.21133 125.66798 94 ft 130 kts 163°
2026-05-05 00:57 39.20468 125.67060 93 ft 61 kts 162°
2026-05-05 00:57 39.20178 125.67177 93 ft 40 kts 162°
2026-05-05 00:58 39.19921 125.67278 96 ft 38 kts 162°
2026-05-05 00:58 39.19677 125.67374 93 ft 30 kts 163°
2026-05-05 00:58 39.19481 125.67460 93 ft 30 kts 152°
2026-05-05 00:58 39.19346 125.67609 97 ft 20 kts 133°
2026-05-05 00:59 39.19317 125.67726 94 ft 12 kts 62°
2026-05-05 00:59 39.19384 125.67746 95 ft 13 kts 343°
2026-05-05 00:59 39.19478 125.67709 93 ft 16 kts 343°
2026-05-05 00:59 39.19587 125.67666 95 ft 15 kts 343°
2026-05-05 01:00 39.19690 125.67626 92 ft 17 kts 343°
2026-05-05 01:00 39.19771 125.67594 94 ft 10 kts 343°
2026-05-05 01:00 39.19832 125.67579 92 ft 6 kts 15°
2026-05-05 01:00 39.19859 125.67626 92 ft 7 kts 71°
2026-05-05 01:01 39.19865 125.67647 92 ft 0 kts 70°